ONEWEB-0537, 56046

Orbit data source: Space-Track

ONEWEB-0537, 56046 is a payload satellite owned by One Web (NAA) (UK) in LEO that was launched on Sun, 26 Mar 2023 UTC via a LVM3 launch vehicle from the Sirharikota (SRI). Payloads include a variety of satellites, spacecraft, and rockets equipped with specific instruments for various scientific and technological missions. These include communications satellites like Starlink; space stations such as the ISS; scientific satellites like the Hubble; Earth observation satellites from companies like Planet Labs, Umbra, and HawkEye 360; GPS; miniature CubeSats for education and research; and military/defense satellites.

Loading next visibility...
ONEWEB-0537 details
Identifier
56046, 2023-043A
Orbit
LEO
Last TLE update18 hours ago
Origin
Flag of UKOne Web (NAA) (UK)
ManufacturerOne Web
MissionOperational Commercial Communications
Bus & MotorARROW, Unknown motor
Mass148 kg wet, ~140 kg dry
Launch date (UTC)
2023-03-26 (2 years ago)
Launch vehicle
LVM3
Launch site
Sirharikota (SRI)
Object type
Payload
Rocket body
Debris
Shape & HBRTrap Box + 2 Pan, 5 m
Radar Cross Section2.032 m², Large (>1 m²)

Expand to show TLE details & history

TLE from 18 hours ago
0 ONEWEB-0537
1 56046U 23043A   25014.89533546 -.00000005  00000-0 -46591-4 0  9994
2 56046  87.9110 332.0303 0002062  82.1003 278.0362 13.16593234 91675
Epoch: 2025-01-14T21:29Z
Definitive object data (Epoch: 2025-01-14T21:29:16.983Z)
Latitude-0.00003°
Longitude-104.88593°
Altitude1,200.439 km
Speed7.254 km/s
True Right ascension22h 08m 07s
True Declination0° 00' 00"
Sunlit
Object was in daylight at TLE epoch
Visualization TLE readout
Latitude-68.35777°
Longitude80.21581°
Altitude1,225.092 km
Speed7.241 km/s
Apparent Right ascension05h 58m 31s
Apparent Declination-64° 48' 21"
Sunlit
Object is in daylight
Visualization observer readout
Local Sidereal Time15:50:27
Azimuth206.014° SW
Elevation-59.033°
Doppler factor1
Orbital elements
Apogee altitude1,196.433 km
Perigee altitude1,193.309 km
Semi-major axis7,573.008 km
Eccentricity0.0002062
Inclination87.911°
RAAN332.0303°
Arg. of periapsis82.1003°
True anomaly278.0128°
Mean anomaly278.0362°
Eccentric anomaly278.0245°
Mean motion3.29337 °/min
BSTAR-0.000046591
Orbital period109.31 mins
Loading maneuver chart data...
Loading historical data...
Loading historical data...
Loading historical data...
Loading historical data...
Loading historical data...
Loading historical data...
Loading historical data...

ONEWEB-0537 Visibility forecast

Observer location: undefined°, undefined

Span
Click to sort rows by Start time (UTC) header in descending order
Start Az.
Max El. time (UTC)
Max El. Az.
Max El.
End time (UTC)
End Az.
4 mins2025-01-15 19:33:38.459Z88.397° E2025-01-15 19:35:38.459Z71.613° E12.218°2025-01-15 19:37:38.459Z54.553° ENE
12 mins2025-01-15 21:18:38.459Z172.268° S2025-01-15 21:23:38.459Z128.891° SE44.218°2025-01-15 21:30:38.459Z3.303° NNE
7 mins2025-01-15 23:11:38.459Z261.156° W2025-01-15 23:14:38.459Z289.664° WNW16.533°2025-01-15 23:18:38.459Z324.346° NNW
12 mins2025-01-16 08:45:38.459Z10.351° NNE2025-01-16 08:50:38.459Z70.912° E41.036°2025-01-16 08:57:38.459Z165.486° S
9 mins2025-01-16 10:35:38.459Z325.969° NNW2025-01-16 10:39:38.459Z287.278° WNW21.547°2025-01-16 10:44:38.459Z239.38° WSW
|